DMSP 5D-2 F13 DEB, 40443

Orbit data source: Space-Track

DMSP 5D-2 F13 DEB, 40443 is space debris in SSO originally from a launch on Fri, 24 Mar 1995 UTC launched from the Air Force Western Test Range (AFWTR). Debris objects in space refer to the collection of defunct objects orbiting the Earth. Examples of debris include non-operational satellites, rocket bodies, and fragments generated from explosions, collisions, or faulty payload assembly.

Loading next visibility...
Identifier
40443, 1995-015AV
Orbit
SSO
Country
Flag of USUS
Related business
Manufacturer
Unknown
Mission
Spacecraft
Bus & Motor
Unknown
Mass
Unknown
Launch date (UTC)
1995-03-24 (31 years ago)
Launch vehicle
Unknown
Launch site
Air Force Western Test Range (AFWTR)
Object type
Payload
Rocket body
Debris
Shape & HBR
Unknown shape, 0.1 m
Radar Cross Section
Small (<0.1 m²)

Expand to show TLE details & history
Last TLE update: 13 hours ago

TLE from 13 hours ago
0 DMSP 5D-2 F13 DEB
1 40443U 95015AV  26119.57556743  .00000168  00000-0  93013-4 0  9991
2 40443  98.6144 134.6001 0040750 121.6773 238.8389 14.22957517579114
Epoch: 2026-04-29T13:48Z
TLE epoch observation values (Epoch: 2026-04-29T13:48:49.025Z)
Latitude
-0.00008°
Longitude
69.86129°
Altitude
833.548 km
Speed
7.428 km/s
True Right ascension
08h 58m 24s
True Declination
0° 00' 00"
Sunlit
Object was in daylight at epoch
Visualization orbit readout
Latitude
Unknown
Longitude
Unknown
Altitude
Unknown
Speed
Unknown
Apparent Right ascension
Unknown
Apparent Declination
Unknown
Sunlit
N/A
Visualization observer readout
Local Sidereal Time
10:40:47
Azimuth
Unknown
Elevation
Unknown
Doppler factor
Unknown
Orbital elements
Apogee altitude
841.82 km
Perigee altitude
783.216 km
Semi-major axis
7,190.655 km
Eccentricity
0.00408
Inclination
98.6144°
RAAN
134.6001°
Arg. of periapsis
121.6773°
True anomaly
238.44037°
Mean anomaly
238.8389°
Eccentric anomaly
238.63953°
Mean motion
3.55951 °/min
Orbital period
101.14 mins
BSTAR
0.000093013
Loading maneuver chart data...
Computing Atmospheric mass density...

Documentation

Showing up to 5 results
|